SL-16 DEB, 27689

Orbit data source: Space-Track

SL-16 DEB, 27689 is space debris in SSO originally from a launch on Mon, 10 Dec 2001 UTC launched from the Tyuratam Missile And Space Complex (TTMTR). Debris objects in space refer to the collection of defunct objects orbiting the Earth. Examples of debris include non-operational satellites, rocket bodies, and fragments generated from explosions, collisions, or faulty payload assembly.

Loading next visibility...
Identifier
27689, 2001-056H
Orbit
SSO
Country
Flag of CISCIS
Related business
Manufacturer
Yuzhnoe
Mission
Spacecraft
Bus & Motor
SEP MOTOR COVER, Unknown motor
Mass
~1 kg wet, ~1 kg dry
Launch date (UTC)
2001-12-10 (24 years ago)
Launch vehicle
Unknown
Launch site
Tyuratam Missile And Space Complex (TTMTR)
Object type
Payload
Rocket body
Debris
Shape & HBR
Cone, 0.5 m
Radar Cross Section
0.635 m², Small (<0.1 m²)

Expand to show TLE details & history
Last TLE update: 23 hours ago

TLE from 23 hours ago
0 SL-16 DEB
1 27689U 01056H   25260.12477545  .00000013  00000-0  11209-3 0  9994
2 27689  99.9106 217.3093 0207818 186.0697 197.9166 13.26004646149876
Epoch: 2025-09-17T02:59Z
TLE epoch observation values (Epoch: 2025-09-17T02:59:40.598Z)
Latitude
22.92182°
Longitude
171.86901°
Altitude
1,313.925 km
Speed
7.13 km/s
True Right ascension
14h 12m 22s
True Declination
22° 48' 27"
Sunlit
Object was in daylight at epoch
Visualization orbit readout
Latitude
Unknown
Longitude
Unknown
Altitude
Unknown
Speed
Unknown
Apparent Right ascension
Unknown
Apparent Declination
Unknown
Sunlit
N/A
Visualization observer readout
Local Sidereal Time
18:30:43
Azimuth
Unknown
Elevation
Unknown
Doppler factor
Unknown
Orbital elements
Apogee altitude
1,315.853 km
Perigee altitude
1,002.574 km
Semi-major axis
7,537.351 km
Eccentricity
0.02078
Inclination
99.9106°
RAAN
217.3093°
Arg. of periapsis
186.0697°
True anomaly
197.2017°
Mean anomaly
197.9166°
Eccentric anomaly
197.55741°
Mean motion
3.31677 °/min
Orbital period
108.54 mins
BSTAR
0.00011209
Loading maneuver chart data...
Computing Atmospheric mass density...
Loading historical data...
Loading historical data...
Loading historical data...
Loading historical data...
Loading historical data...
Loading historical data...
Loading historical data...

Documentation

Showing up to 5 results
|